This is the latest recevied weather packets stored in our database for station/object K4AGR-13. If no packets are shown the sender has not sent any weather packets the latest 10 day(s).
| Time | Temp. | Humidity | Pressure | Rain* | Wind** | Luminosity | Snow |
|---|---|---|---|---|---|---|---|
| 1777298705 | 20.56° C | 84% | 1018.3 hPa | 0 mm | - | 153 W/m² | - |
| 1777298401 | 20° C | 84% | 1018.3 hPa | 0 mm | - | 124 W/m² | - |
| 1777298097 | 20° C | 85% | 1018.2 hPa | 0 mm | - | 134 W/m² | - |
| 1777297796 | 20° C | 85% | 1017.9 hPa | 0 mm | - | 130 W/m² | - |
| 1777297495 | 20° C | 85% | 1018.1 hPa | 0 mm | - | 137 W/m² | - |
| 1777297192 | 20° C | 85% | 1017.9 hPa | 0 mm | - | 133 W/m² | - |
| 1777296890 | 20° C | 85% | 1018 hPa | 0 mm | - | 143 W/m² | - |
| 1777296585 | 20° C | 85% | 1018.1 hPa | 0 mm | - | 128 W/m² | - |
| 1777296251 | 20° C | 86% | 1017.9 hPa | 0 mm | - | 158 W/m² | - |
| 1777295947 | 20° C | 85% | 1017.7 hPa | 0 mm | - | 147 W/m² | - |
| 1777295645 | 20° C | 85% | 1017.6 hPa | 0 mm | - | 138 W/m² | - |
| 1777295342 | 20° C | 85% | 1017.8 hPa | 0 mm | - | 147 W/m² | - |
| 1777295040 | 20° C | 85% | 1017.8 hPa | 0 mm | - | 138 W/m² | - |
| 1777294736 | 20° C | 85% | 1017.7 hPa | 0 mm | - | 148 W/m² | - |
| 1777294431 | 20° C | 85% | 1017.5 hPa | 0 mm | - | 175 W/m² | - |
| 1777294128 | 20° C | 84% | 1017.3 hPa | 0 mm | - | 167 W/m² | - |
| 1777293825 | 20.56° C | 82% | 1017.3 hPa | 0 mm | - | 225 W/m² | - |
| 1777293525 | 20.56° C | 83% | 1017.2 hPa | 0 mm | - | 195 W/m² | - |
| 1777293221 | 20.56° C | 83% | 1017.4 hPa | 0 mm | - | 183 W/m² | - |
| 1777292921 | 20° C | 83% | 1017.2 hPa | 0 mm | - | 165 W/m² | - |
| 1777292616 | 20° C | 83% | 1017 hPa | 0 mm | - | 149 W/m² | - |
| 1777292312 | 20° C | 85% | 1017 hPa | 0 mm | - | 134 W/m² | - |
| 1777292008 | 20° C | 84% | 1016.8 hPa | 0 mm | - | 108 W/m² | - |
| 1777291705 | 19.44° C | 85% | 1016.7 hPa | 0 mm | - | 96 W/m² | - |
| 1777291403 | 19.44° C | 85% | 1016.6 hPa | 0 mm | - | 88 W/m² | - |
* Rain latest hour (hover to see other rain measurements)
** Current wind speed in m/s (hover to see current wind gust speed)